Regional Weather Roundup
Issued by NWS

Home | Current Version | Previous Version | Graphics & Text | Print | Product List | Glossary On
Versions: 1 2 3 4 5 6 7 8 9 10 11 12 13 14 15 16 17 18 19 20 21 22 23 24 25 26 27 28 29 30 31 32 33 34 35 36 37 38 39 40 41 42 43 44 45 46 47 48 49 50
000
ASUS43 KIND 180659
RWRIN

WEATHER ROUNDUP FOR INDIANA
NATIONAL WEATHER SERVICE INDIANAPOLIS IN
300 AM EDT SAT APR 18 2015

NOTE: "FAIR" INDICATES FEW OR NO CLOUDS BELOW 12,000 FEET WITH NO
SIGNIFICANT WEATHER AND/OR OBSTRUCTIONS TO VISIBILITY.

* - STATION DOES NOT REPORT WEATHER SUCH AS PRECIPITATION OR FOG.

+ - STATION NOT QUALITY CONTROLLED BY THE NATIONAL WEATHER SERVICE.
    USE DATA WITH CAUTION...ESPECIALLY DEWPOINT AND RELATIVE
    HUMIDITY OBSERVATIONS.

INZ001>003-010>013-019-020-180800-
NORTHWEST INDIANA

CITY           SKY/WX    TMP DP  RH WIND       PRES   REMARKS
RENSSELAER +   PTCLDY    57  46  67 SW7       30.04S

$$

LMZ046-743>745-180800-
SOUTHERN LAKE MICHIGAN

STATION/POSITION TIME  TEMP WIND        PRES
                       AIR  DIR/SP/G
                 (UTC) (F)  (DEG/KT/KT) (MB)
BURNS HARBOR     0600   64  200/ 11/ 14 1016.9S
MICHIGAN CITY    0600   66  170/ 10/ 12   N/A
4NW MICH CITY    0600   54                N/A

$$

INZ004-005-014>016-021>024-180800-
NORTH CENTRAL INDIANA

CITY           SKY/WX    TMP DP  RH WIND       PRES   REMARKS
GOSHEN         CLEAR     52  45  77 S3        30.03R
SOUTH BEND     CLEAR     55  44  66 SW7       30.03S

$$

INZ006>009-017-018-025>027-180800-
NORTHEAST INDIANA

CITY           SKY/WX    TMP DP  RH WIND       PRES   REMARKS
ANGOLA *+      CLEAR     48  45  87 SW3       30.03R
FORT WAYNE     MOCLDY    56  46  69 W6        30.04S

$$

INZ028-029-035-036-043>045-051>053-180800-
WEST CENTRAL INDIANA

CITY           SKY/WX    TMP DP  RH WIND       PRES   REMARKS
CRAWFORDSVL +  CLEAR     49  44  83 CALM      30.05F
GREENCASTLE +  CLEAR     54  43  66 CALM      30.06S
LAFAYETTE      CLEAR     51  47  86 CALM      30.04S
TERRE HAUTE    CLEAR     53  49  86 CALM      30.04F

$$

INZ030>032-037>040-046>048-054>057-064-065-180800-
CENTRAL INDIANA

CITY           SKY/WX    TMP DP  RH WIND       PRES   REMARKS
INDIANAPOLIS   CLEAR     57  46  66 CALM      30.04S
-EAGLE CREEK   CLEAR     56  50  80 CALM      30.04F
KOKOMO *+      CLEAR     52  46  82 CALM      30.05S
MT COMFORT *+  CLEAR     50  46  87 S3        30.06S
SHELBYVILLE    CLEAR     55  45  68 N3        30.05S

$$

INZ033-034-041-042-049-050-058-059-180800-
EAST CENTRAL INDIANA

CITY           SKY/WX    TMP DP  RH WIND       PRES   REMARKS
MUNCIE         CLEAR     53  45  74 CALM      30.05S

$$

INZ060-061-067>069-081>083-085>088-180800-
SOUTHWEST INDIANA

CITY           SKY/WX    TMP DP  RH WIND       PRES   REMARKS
EVANSVILLE     CLEAR     59  56  89 CALM      30.03F FOG
HUNTINGBURG *+ CLEAR     57  54  88 CALM      30.04F

$$

INZ062-063-066-070>080-084-089>092-180800-
SOUTH CENTRAL AND SOUTHEAST INDIANA

CITY           SKY/WX    TMP DP  RH WIND       PRES   REMARKS
BLOOMINGTON    CLEAR     52  48  86 CALM      30.05F
MADISON *+     CLEAR     54  48  82 CALM      30.07S

$$




USA.gov is the U.S. government's official web portal to all federal, state and local government web resources and services.